Regional Weather Roundup
Issued by NWS Green Bay, WI

Home | Current Version | Previous Version | Graphics & Text | Print | Product List | Glossary Off
Versions: 1 2 3 4 5 6 7 8 9 10 11 12 13 14 15 16 17 18 19 20 21 22 23 24 25 26 27 28 29 30 31 32 33 34 35 36 37 38 39 40 41 42 43 44 45 46 47 48 49 50

539
ASUS43 KGRB 141100
RWRGRB

NORTH-CENTRAL AND NORTHEAST WISCONSIN REGIONAL WEATHER ROUNDUP
NATIONAL WEATHER SERVICE GREEN BAY WI
500 AM CST SUN FEB 14 2016

WIZ005-009-010>012-018-019-141200-
NORTH CENTRAL WISCONSIN

CITY           SKY/WX    TMP DP  RH WIND       PRES   REMARKS
IRONWOOD       CLOUDY    -2 -20  42 CALM      30.20F
MANITOWISH WTR NOT AVBL
ARBOR VITAE    NOT AVBL
EAGLE RIVER    NOT AVBL
LAND O LAKES   NOT AVBL
RHINELANDER    CLOUDY   -18 -22  82 E3        30.23F
PHILLIPS       NOT AVBL
ANTIGO         NOT AVBL
TOMAHAWK       NOT AVBL
MERRILL        NOT AVBL
$$

WIZ013-073-141200-
NORTHEAST WISCONSIN

CITY           SKY/WX    TMP DP  RH WIND       PRES   REMARKS
IRON MOUNTAIN  CLOUDY   -19 -25  73 CALM      30.30F
MARINETTE      CLOUDY    -9 -15  77 CALM      30.37S
$$

WIZ017-030-035>037-045-141200-
CENTRAL WISCONSIN

CITY           SKY/WX    TMP DP  RH WIND       PRES   REMARKS
MEDFORD        NOT AVBL
WAUSAU         CLOUDY   -12 -18  74 E5        30.28F WCI -24
MOSINEE        NOT AVBL
MARSHFIELD     PTCLDY    -8 -16  67 E6        30.25F WCI -21
WISC RAPIDS    PTCLDY    -7 -15  68 SE5       30.31F WCI -18
STEVENS POINT  NOT AVBL
WAUPACA        NOT AVBL
SHAWANO        NOT AVBL
CLINTONVILLE   NOT AVBL
WAUTOMA        NOT AVBL
$$

WIZ038-039-048-051-141200-
FOX VALLEY

CITY           SKY/WX    TMP DP  RH WIND       PRES   REMARKS
NWS GREEN BAY  CLOUDY   -12 -16  82 CALM      30.37F
APPLETON       NOT AVBL
OSHKOSH        CLOUDY    -4 -11  72 S5        30.35S WCI -15
FOND DU LAC    CLOUDY    -9 -15  75 S5        30.35F WCI -20
$$

WIZ022-050-052-141200-
EAST CENTRAL WISCONSIN

CITY           SKY/WX    TMP DP  RH WIND       PRES   REMARKS
EPHRAIM        NOT AVBL
STURGEON BAY   CLOUDY    -2 -11  65 CALM      30.38F
MANITOWOC      NOT AVBL
SHEBOYGAN      CLOUDY    -4 -10  75 CALM      30.36F
$$

LMZ563-521-522-541>543-141200-
LAKESHORE

STATION/POSITION TIME  TEMP    WIND        PRES    VSBY  WAVE
                       AIR SEA DIR/SP/G                  HT/PER
                 (UTC) (F)     (DEG/KT/KT) (MB)    (MI)  (FT/S)
SHEBOYGAN LKSHOR 1000    8     260/  3/  4 1030.6F
KEWAUNEE LKSHORE 1000   -3     300/  6/  6 1028.0F
SISTER BAY LKSHO 1019    1        CALM       N/A
CHAMBERS ISLAND  1000    0     180/  2/  6 1028.8F
MENOMINEE LKSHOR 1000    0     230/  5     1027.9F
$$




USA.gov is the U.S. government's official web portal to all federal, state and local government web resources and services.